Regional Weather Roundup
Issued by NWS Sterling, VA

Home | Current Version | Previous Version | Graphics & Text | Print | Product List | Glossary On
Versions: 1 2 3 4 5 6 7 8 9 10 11 12 13 14 15 16 17 18 19 20 21 22 23 24 25 26 27
000
ASUS41 KLWX 240311
RWRLWX

REGIONAL WEATHER ROUNDUP
NATIONAL WEATHER SERVICE BALTIMORE MD/WASHINGTON DC
1000 PM EST THU NOV 23 2017

Note: "FAIR" indicates few or no clouds below 12,000 feet
with no significant weather and/or obstructions to visibility.
 TC=TEMPERATURE CELSIUS

 * =Non NWS site. Station does not report precipitation (e.g. rain,
    snow, etc.), thunder, or fog.

DCZ001-MDZ009-015-VAZ040>042-051-053>054-240400-
WASHINGTON METRO

CITY           SKY/WX    TMP DP  RH WIND       PRES   REMARKS
WASHINGTON NAT CLEAR     37  27  67 SW3       30.09R
DULLES         CLEAR     29  25  85 CALM      30.07S
ANDREWS AFB    CLEAR     29  23  79 CALM      30.06S
FT BELVOIR     CLEAR     28  24  82 CALM      30.08S
QUANTICO       CLEAR     33  29  85 NW7       30.10
COLLEGE PARK*  CLEAR     29  23  78 CALM      30.08R
LEESBURG*      CLEAR     32  28  86 S3        30.07S
MANASSAS*      CLEAR     26  23  88 CALM      30.08S
GAITHERSBURG*  CLEAR     30  23  75 CALM      30.06S

$$

MDZ006>007-011-014-240400-
BALTIMORE METRO

CITY           SKY/WX    TMP DP  RH WIND       PRES   REMARKS
BWI AIRPORT    CLEAR     30  24  78 CALM      30.07S
MARTIN STATE   CLEAR     34  30  86 CALM      30.10R
FORT MEADE*    CLEAR     27  25  93 CALM      30.10S

$$

MDZ012-015-019>023-240400-
MARYLAND EASTERN SHORE

CITY           SKY/WX    TMP DP  RH WIND       PRES   REMARKS
OCEAN CITY     CLEAR     27  26  96 CALM      30.09S
SALISBURY      CLEAR     27  25  92 CALM      30.08R
CAMBRIDGE*     PTCLDY    28  25  86 SE3       30.08S

$$

MDZ017>025-240400-
SOUTHERN MARYLAND

CITY           SKY/WX    TMP DP  RH WIND       PRES   REMARKS
PATUXENT RIVER CLEAR     28  26  92 SW5       30.07F
ST INIGOES     NOT AVBL
LEONARDTOWN*   CLEAR     32  27  80 CALM      30.09S

$$

MDZ003>005-240400-
NORTH CENTRAL MARYLAND

CITY           SKY/WX    TMP DP  RH WIND       PRES   REMARKS
FREDERICK*     CLEAR     28  23  80 CALM      30.09S
HAGERSTOWN APT CLEAR     36  21  54 SE5       30.04R
WESTMINSTER*   CLEAR     30  25  80 SE3       30.04R

$$

MDZ501>502-240400-
WESTERN MARYLAND

CITY           SKY/WX    TMP DP  RH WIND       PRES   REMARKS
OAKLAND*       CLEAR     32  18  55 W8        29.94S WCI  25
CUMBERLAND*    CLEAR     32  27  80 CALM      30.08R

$$

VAZ025>031-240400-
SHENANDOAH VALLEY

CITY           SKY/WX    TMP DP  RH WIND       PRES   REMARKS
WINCHESTER*    CLEAR     30  23  74 CALM      30.04S
FRONT ROYAL*   CLEAR     32  25  74 MISG      30.03F
LURAY*         CLEAR     30  27  86 CALM      30.04S
NEW MARKET*    CLEAR     28  24  84 CALM      30.03S
STAUNTON*      CLEAR     26  22  85 CALM      30.05S
WAYNESBORO*    CLEAR     32  23  70 CALM      30.02S

$$

WVZ021-048>050-054>055-240400-
EASTERN WEST VIRGINIA PANHANDLE

CITY           SKY/WX    TMP DP  RH WIND       PRES   REMARKS
MARTINSBURG    CLEAR     28  22  78 SW3       30.04R
PETERSBURG*    CLEAR     26  23  89 CALM      30.04R

$$

VAZ036>039-050-240400-
CENTRAL FOOTHILLS

CITY           SKY/WX    TMP DP  RH WIND       PRES   REMARKS
CHARLOTTESVILL CLEAR     34  25  69 CALM      30.06S
CULPEPER*      CLEAR     26  22  84 CALM      30.09R
ORANGE*        CLEAR     28  25  86 CALM      30.07S
GORDONSVILLE*  CLEAR     28  25  89 SW3       30.07R
WARRENTON*     NOT AVBL

$$

VAZ055>057-240400-
NORTH AND CENTRAL PIEDMONT

CITY           SKY/WX    TMP DP  RH WIND       PRES   REMARKS
FREDERICKSBRG* CLEAR     30  27  89 CALM      30.08S
STAFFORD*      CLEAR     26  26 100 CALM      30.12S

$$

NCZ024-NYZ072-PAZ021-071-VAZ022-071-240400-
OTHER REGIONAL OBSERVATIONS

CITY           SKY/WX    TMP DP  RH WIND       PRES   REMARKS
NEW YORK CITY  CLEAR     38  20  48 VRB3      30.06R
PHILADELPHIA   CLEAR     35  22  58 W6        30.08R
PITTSBURGH     PTCLDY    35  22  58 SW3       30.01F
ROANOKE        CLEAR     35  25  66 CALM      30.06F
RICHMOND       CLEAR     32  26  78 CALM      30.08S
RALEIGH        PTCLDY    32  30  92 CALM      30.08R

$$

ANZ530>537-240400-
MARINE OBSERVATIONS

STATION/POSITION TIME  TEMP    WIND        PRES
                       AIR SEA DIR/SP/G
                 (UTC) (F)     (DEG/KT/KT) (MB)
THOMAS PT LIGHT  0300   42 51  280/  6/  7   N/A
BALT KEY BRIDGE  0248   38     230/  5/  6 1018.5R
COVE POINT       0248   40     270/  5/  6 1019.0R
LEWISETTA        0248   38 48  250/  3/  4 1018.6S
SOLOMONS ISLAND  0248   39 53   CALM  /  4 1018.1S
PINEY POINT      0248          270/  7/ 10   N/A

$$





USA.gov is the U.S. government's official web portal to all federal, state and local government web resources and services.